Location: Wildlife_Club
(35.6000°N, 81.4330°W)
Time: 09:19:10
(UTC-04:00)

A-11 Canister half - Pass Details

Date: 04 July 2019
Orbit: 1514 x 1686 km, 47.2° (Epoch: 19 August)

Event Time Altitude Azimuth Distance (km) Brightness Sun altitude
Rises 06:41:21 0° 203° (SSW) 4,914 11.2 3.9°
Reaches altitude 10° 06:44:46 10° 196° (SSW) 3,936 10.8 4.5°
Maximum altitude 06:53:56 40° 131° (SE) 2,310 10.3 6.2°
Drops below altitude 10° 07:03:02 10° 67° (ENE) 3,919 15.1 7.9°
Sets 07:06:24 0° 60° (ENE) 4,891 13.9 8.6°
